Boone, IA

1:42 PM CST on February 27, 2017 (GMT -0600)
Boone Municipal

Weather History for KBNW - May, 2013

Change the Weather History Date:

Monday, May 20, 2013

  Actual Average Record
Temperature  
Mean Temperature 66 °F -  
Max Temperature 73 °F 75 °F 92 °F (1948)
Min Temperature 58 °F 48 °F 33 °F (1963)
Growing Degree Days 16 (Base 50)    
Moisture  
Dew Point 58 °F    
Average Humidity 79    
Maximum Humidity 94    
Minimum Humidity 57    
Precipitation  
Precipitation 0.03 in - - ()
Sea Level Pressure  
Sea Level Pressure 29.62 in    
Wind  
Wind Speed 11 mph (South)    
Max Wind Speed 21 mph    
Max Gust Speed 37 mph    
Visibility 10 miles    
Events Rain    
Averages and records for this station are not official NWS values.
T = Trace of Precipitation, MM = Missing Value Source: NWS Daily Summary

Daily Weather History Graph

Daily Weather History Graph

Search for Another Location

Airport or City:

Trip Planner

Search our weather history database for the weather conditions in past years. The results will help you decide how hot, cold, wet, or windy it might be!

Date:

Astronomy

May. 20, 2013 Rise Set
Actual Time 5:49 AM CDT 8:34 PM CDT
Civil Twilight 5:17 AM CDT 9:07 PM CDT
Nautical Twilight 4:36 AM CDT 9:48 PM CDT
Astronomical Twilight 3:49 AM CDT 10:35 PM CDT
Moon 3:38 PM CDT (5/20) 2:50 AM CDT (5/20)
Length of Visible Light 15h 49m
Length of Day
14h 44m
Waxing Gibbous, 75% of the Moon is Illuminated
May 20
Waxing Gibbous
May 24
Full
May 31
Last Quarter
Jun 8
New
Jun 16
First Quarter

Hourly Weather History & Observations

Time (CDT) Temp. Dew Point Humidity Pressure Visibility Wind Dir Wind Speed Gust Speed Precip Events Conditions
12:15 AM 60.4 °F 58.5 °F 93% 29.65 in 10.0 mi SSE 6.9 mph - N/A   Overcast
12:35 AM 60.8 °F 58.8 °F 93% 29.67 in 10.0 mi South 8.1 mph - N/A   Overcast
12:55 AM 60.4 °F 58.6 °F 94% 29.64 in 5.0 mi SSE 9.2 mph - 0.02 in Rain Heavy Rain
1:15 AM 60.3 °F 58.3 °F 93% 29.62 in 7.0 mi SE 10.4 mph - 0.01 in   Overcast
1:35 AM 60.1 °F 58.1 °F 93% 29.61 in 10.0 mi SSE 10.4 mph - 0.01 in   Scattered Clouds
1:55 AM 59.5 °F 57.6 °F 93% 29.59 in 10.0 mi SSE 11.5 mph - 0.01 in   Clear
2:15 AM 59.4 °F 57.2 °F 93% 29.56 in 10.0 mi SE 11.5 mph - N/A   Clear
2:35 AM 59.4 °F 57.4 °F 93% 29.56 in 10.0 mi SSE 12.7 mph - N/A   Clear
2:55 AM 59.4 °F 57.4 °F 93% 29.56 in 10.0 mi SSE 12.7 mph - N/A   Mostly Cloudy
3:15 AM 59.4 °F 57.4 °F 93% 29.58 in 10.0 mi South 12.7 mph - N/A   Overcast
3:35 AM 59.4 °F 57.2 °F 93% 29.57 in 10.0 mi South 11.5 mph - N/A   Overcast
3:55 AM 59.4 °F 57.2 °F 93% 29.57 in 10.0 mi South 9.2 mph - N/A   Scattered Clouds
4:15 AM 59.2 °F 57.2 °F 93% 29.58 in 10.0 mi SSW 9.2 mph - N/A   Scattered Clouds
4:35 AM 59.4 °F 57.2 °F 93% 29.58 in 10.0 mi South 9.2 mph - N/A   Overcast
4:55 AM 59.2 °F 57.2 °F 93% 29.58 in 10.0 mi South 6.9 mph - N/A   Mostly Cloudy
5:15 AM 59.0 °F 56.8 °F 93% 29.59 in 10.0 mi South 4.6 mph - N/A   Mostly Cloudy
5:35 AM 58.6 °F 56.7 °F 93% 29.60 in 10.0 mi South 6.9 mph - N/A   Scattered Clouds
5:55 AM 58.5 °F 56.3 °F 93% 29.60 in 10.0 mi South 8.1 mph - N/A   Clear
6:15 AM 58.5 °F 56.3 °F 93% 29.61 in 10.0 mi South 9.2 mph - N/A   Clear
6:35 AM 59.0 °F 55.9 °F 90% 29.61 in 10.0 mi South 10.4 mph - N/A   Clear
6:55 AM 59.5 °F 55.6 °F 87% 29.60 in 10.0 mi SSW 9.2 mph - N/A   Clear
7:15 AM 60.3 °F 56.3 °F 87% 29.60 in 10.0 mi SSW 9.2 mph - N/A   Clear
7:35 AM 61.0 °F 56.3 °F 85% 29.62 in 10.0 mi South 11.5 mph - N/A   Clear
7:55 AM 61.7 °F 57.2 °F 85% 29.63 in 10.0 mi South 15.0 mph - N/A   Clear
8:15 AM 62.4 °F 57.6 °F 84% 29.63 in 10.0 mi SSW 12.7 mph 21.9 mph N/A   Clear
8:35 AM 63.0 °F 57.0 °F 81% 29.62 in 10.0 mi SSW 15.0 mph 24.2 mph N/A   Scattered Clouds
8:55 AM 63.5 °F 57.2 °F 80% 29.62 in 10.0 mi SSW 15.0 mph 25.3 mph N/A   Scattered Clouds
9:15 AM 63.9 °F 57.4 °F 79% 29.62 in 10.0 mi SSW 16.1 mph 23.0 mph N/A   Mostly Cloudy
9:35 AM 64.2 °F 57.0 °F 77% 29.63 in 10.0 mi SSW 20.7 mph 25.3 mph N/A   Mostly Cloudy
9:55 AM 64.6 °F 57.4 °F 77% 29.62 in 10.0 mi SSW 16.1 mph 25.3 mph N/A   Mostly Cloudy
10:15 AM 65.5 °F 57.7 °F 76% 29.63 in 10.0 mi SSW 15.0 mph 36.8 mph N/A   Mostly Cloudy
10:35 AM 64.8 °F 57.2 °F 76% 29.64 in 10.0 mi SSW 16.1 mph 26.5 mph N/A   Overcast
10:55 AM 64.8 °F 57.4 °F 77% 29.65 in 10.0 mi SSW 19.6 mph 27.6 mph N/A   Overcast
11:15 AM 66.6 °F 58.8 °F 76% 29.65 in 10.0 mi SW 17.3 mph 26.5 mph N/A   Overcast
11:35 AM 66.4 °F 58.8 °F 77% 29.66 in 10.0 mi SSW 20.7 mph 28.8 mph N/A   Mostly Cloudy
11:55 AM 66.9 °F 58.8 °F 75% 29.67 in 10.0 mi SW 18.4 mph 27.6 mph N/A   Mostly Cloudy
12:15 PM 66.9 °F 59.4 °F 77% 29.67 in 10.0 mi SW 13.8 mph 20.7 mph N/A   Mostly Cloudy
12:35 PM 67.1 °F 58.6 °F 74% 29.68 in 10.0 mi SW 15.0 mph 24.2 mph N/A   Overcast
12:55 PM 68.2 °F 59.0 °F 72% 29.67 in 10.0 mi SSW 18.4 mph 24.2 mph N/A   Mostly Cloudy
1:35 PM 69.6 °F 58.1 °F 67% 29.68 in 10.0 mi SSW 19.6 mph 26.5 mph N/A   Mostly Cloudy
1:55 PM 70.9 °F 57.9 °F 63% 29.68 in 10.0 mi SW 16.1 mph 25.3 mph N/A   Scattered Clouds
2:15 PM 71.8 °F 59.0 °F 64% 29.67 in 10.0 mi SSW 16.1 mph 21.9 mph N/A   Scattered Clouds
2:35 PM 71.2 °F 57.9 °F 63% 29.67 in 10.0 mi SSW 17.3 mph 21.9 mph N/A   Scattered Clouds
2:55 PM 71.8 °F 56.5 °F 58% 29.67 in 10.0 mi SSW 15.0 mph 24.2 mph N/A   Scattered Clouds
3:15 PM 73.2 °F 58.1 °F 59% 29.67 in 10.0 mi SSW 13.8 mph 19.6 mph N/A   Scattered Clouds
3:35 PM 72.9 °F 58.1 °F 60% 29.66 in 10.0 mi SW 16.1 mph 19.6 mph N/A   Scattered Clouds
3:55 PM 72.7 °F 57.0 °F 58% 29.67 in 10.0 mi SSW 16.1 mph 20.7 mph N/A   Scattered Clouds
4:15 PM 71.8 °F 57.9 °F 62% 29.66 in 10.0 mi South 13.8 mph 21.9 mph N/A   Mostly Cloudy
4:35 PM 71.6 °F 57.9 °F 62% 29.66 in 10.0 mi South 15.0 mph 20.7 mph N/A   Scattered Clouds
4:55 PM 72.3 °F 57.7 °F 60% 29.64 in 10.0 mi SSW 12.7 mph 17.3 mph N/A   Clear
5:15 PM 72.7 °F 56.5 °F 57% 29.64 in 10.0 mi SSW 12.7 mph 21.9 mph N/A   Clear
5:35 PM 72.9 °F 57.0 °F 57% 29.64 in 10.0 mi SW 13.8 mph - N/A   Clear
5:55 PM 72.9 °F 57.0 °F 57% 29.63 in 10.0 mi SW 13.8 mph - N/A   Clear
6:15 PM 72.9 °F 57.4 °F 58% 29.61 in 10.0 mi SW 11.5 mph - N/A   Clear
6:35 PM 72.9 °F 57.7 °F 59% 29.60 in 10.0 mi SW 9.2 mph - N/A   Clear
6:55 PM 72.5 °F 57.7 °F 60% 29.58 in 10.0 mi WSW 9.2 mph - N/A   Clear
7:15 PM 72.5 °F 58.6 °F 62% 29.59 in 10.0 mi SSW 3.5 mph - N/A   Clear
7:35 PM 72.9 °F 59.7 °F 63% 29.59 in 10.0 mi SE 8.1 mph - N/A   Scattered Clouds
7:55 PM 70.7 °F 61.3 °F 72% 29.59 in 10.0 mi South 9.2 mph - N/A   Scattered Clouds
8:15 PM 68.9 °F 59.9 °F 73% 29.59 in 10.0 mi South 4.6 mph - N/A   Scattered Clouds
8:35 PM 67.5 °F 60.1 °F 77% 29.58 in 10.0 mi SE 10.4 mph - N/A   Clear
8:55 PM 66.0 °F 57.4 °F 74% 29.58 in 10.0 mi SSE 11.5 mph 23.0 mph N/A Rain Light Rain
9:15 PM 63.0 °F 54.7 °F 74% 29.59 in 10.0 mi SSE 9.2 mph - N/A   Clear
9:35 PM 63.0 °F 56.1 °F 78% 29.59 in 10.0 mi SSE 10.4 mph - N/A   Clear
9:55 PM 63.0 °F 58.5 °F 85% 29.58 in 10.0 mi SSE 8.1 mph - N/A   Clear
10:15 PM 62.1 °F 58.6 °F 89% 29.57 in 10.0 mi SSE 6.9 mph - N/A   Clear
10:35 PM 61.7 °F 58.8 °F 90% 29.58 in 10.0 mi SSE 6.9 mph - N/A   Clear
10:55 PM 61.3 °F 58.6 °F 91% 29.59 in 10.0 mi SSE 5.8 mph - N/A   Scattered Clouds
11:15 PM 60.8 °F 58.3 °F 91% 29.59 in 10.0 mi SSE 5.8 mph - N/A   Scattered Clouds
11:35 PM 60.8 °F 58.3 °F 91% 29.59 in 10.0 mi South 4.6 mph - N/A   Scattered Clouds
11:55 PM 61.9 °F 58.3 °F 88% 29.59 in 10.0 mi South 5.8 mph - N/A   Scattered Clouds